TimeCST,TemperatureF,Dew PointF,Humidity,Sea Level PressureIn,VisibilityMPH,Wind Direction,Wind SpeedMPH,Gust SpeedMPH,PrecipitationIn,Events,Conditions,WindDirDegrees,DateUTC
12:52 AM,3.9,-4.0,70,30.47,10.0,Calm,Calm,-,N/A,,Clear,0,2014-02-07 06:52:00
1:52 AM,3.9,-4.0,70,30.47,10.0,Calm,Calm,-,N/A,,Clear,0,2014-02-07 07:52:00
2:52 AM,3.0,-4.0,73,30.47,10.0,Calm,Calm,-,N/A,,Clear,0,2014-02-07 08:52:00
3:52 AM,5.0,-4.0,66,30.45,10.0,East,3.5,-,N/A,,Clear,80,2014-02-07 09:52:00
4:52 AM,7.0,-2.0,67,30.46,10.0,East,3.5,-,N/A,,Overcast,80,2014-02-07 10:52:00
5:52 AM,7.0,-2.0,67,30.46,10.0,ENE,3.5,-,N/A,,Overcast,70,2014-02-07 11:52:00
6:52 AM,9.0,-2.0,61,30.44,10.0,ESE,9.2,-,N/A,,Overcast,120,2014-02-07 12:52:00
7:52 AM,9.0,-2.0,61,30.48,10.0,SE,8.1,-,N/A,,Overcast,140,2014-02-07 13:52:00
8:52 AM,10.9,-0.9,59,30.47,10.0,SE,8.1,-,N/A,,Overcast,130,2014-02-07 14:52:00
9:52 AM,12.0,-0.9,56,30.46,10.0,SE,12.7,-,N/A,,Overcast,140,2014-02-07 15:52:00
10:52 AM,15.1,1.9,56,30.45,10.0,SSE,11.5,-,N/A,,Overcast,150,2014-02-07 16:52:00
11:52 AM,17.1,3.9,56,30.42,10.0,SE,9.2,-,N/A,,Overcast,140,2014-02-07 17:52:00
12:52 PM,18.0,6.1,60,30.38,10.0,SE,4.6,-,N/A,,Overcast,140,2014-02-07 18:52:00
1:52 PM,19.0,7.0,59,30.35,10.0,SSE,9.2,-,N/A,,Overcast,150,2014-02-07 19:52:00
2:52 PM,19.9,8.1,60,30.32,10.0,SE,8.1,-,N/A,,Overcast,140,2014-02-07 20:52:00
3:52 PM,21.9,9.0,58,30.31,10.0,SSE,9.2,-,N/A,,Overcast,150,2014-02-07 21:52:00
4:52 PM,21.0,9.0,60,30.30,10.0,SE,10.4,-,N/A,,Overcast,140,2014-02-07 22:52:00
5:52 PM,21.0,10.0,63,30.30,10.0,SE,11.5,-,N/A,,Overcast,140,2014-02-07 23:52:00
6:52 PM,19.9,10.0,65,30.31,10.0,SE,9.2,-,N/A,,Overcast,140,2014-02-08 00:52:00
7:52 PM,19.9,10.0,65,30.30,10.0,SE,11.5,-,N/A,,Overcast,140,2014-02-08 01:52:00
8:22 PM,19.9,10.0,65,30.22,10.0,SSE,10.4,-,N/A,,Overcast,150,2014-02-08 02:22:00
8:52 PM,19.9,10.0,65,30.28,10.0,SSE,12.7,-,N/A,,Overcast,150,2014-02-08 02:52:00
9:52 PM,19.9,10.0,65,30.28,10.0,SE,11.5,-,N/A,,Overcast,140,2014-02-08 03:52:00
10:52 PM,19.0,10.0,68,30.27,10.0,SE,11.5,-,N/A,,Overcast,140,2014-02-08 04:52:00
11:52 PM,19.9,12.0,71,30.25,10.0,SSE,10.4,-,N/A,,Overcast,160,2014-02-08 05:52:00